Regional Weather Roundup
Issued by NWS

Home | Current Version | Previous Version | Text Only | Print | Product List | Glossary Off
Versions: 1 2 3 4 5 6 7 8 9 10 11 12 13 14 15 16 17 18 19 20 21 22 23 24 25 26 27 28 29 30 31 32 33 34 35 36 37 38 39 40 41 42 43 44 45 46 47 48 49 50

978
ASUS45 KBOU 052307
RWRCO

WEATHER ROUNDUP FOR COLORADO
NATIONAL WEATHER SERVICE DENVER/BOULDER CO
400 PM MST MON DEC 05 2016

NOTE: "FAIR" INDICATES FEW OR NO CLOUDS BELOW 12000 FEET WITH NO
SIGNIFICANT WEATHER AND/OR OBSTRUCTIONS TO VISIBILITY.

COZ001>005-013-030-031-060000-
...NORTHWEST COLORADO...

CITY           SKY/WX    TMP DP  RH WIND       PRES   REMARKS
CRAIG          CLOUDY    23  -7  26 NW9       29.93R WCI  13
HAYDEN         CLOUDY    19  -8  30 W16G22    29.90R WCI   5
MEEKER         CLOUDY    22  10  60 N16       29.89R WCI   8
MOUNT WERNER   NOT AVBL
STEAMBOAT SPGS CLOUDY    17   1  48 SW7       29.88S WCI   8
WALDEN           N/A     12   0  57 W15       29.80R WCI  -4
$$

COZ006>008-011-060000-
...WEST CENTRAL VALLEYS...

CITY           SKY/WX    TMP DP  RH WIND       PRES   REMARKS
GRAND JUNCTION MOCLDY    42  20  41 NW9       29.82R
MONTROSE       FAIR      44  12  27 NW17G25   29.83R
EAGLE          MOCLDY    30  21  69 W10       29.79R WCI  21
RIFLE          CLOUDY    37  14  38 NW17G35   29.83R
DELTA          FAIR      47  13  26 W17G29    29.82R
NUCLA          FAIR      45  18  33 NW10      29.88S
$$

COZ017>023-064>068-060000-
...SOUTHWEST COLORADO...

CITY           SKY/WX    TMP DP  RH WIND       PRES   REMARKS
DURANGO        FAIR      44  11  26 W23       29.81R
CORTEZ         FAIR      46  16  30 W6        29.85S
PAGOSA SPRINGS FAIR      41  14  33 SW10G20   29.81S
TELLURIDE      FAIR      32   7  35 W7G17     29.89R WCI  26
WOLF CREEK PAS FAIR      18  14  86 SW13G18   29.89R WCI   4
$$

COZ009-010-012-014-032>034-037-058>063-060000-
...CENTRAL COLORADO...

CITY           SKY/WX    TMP DP  RH WIND       PRES   REMARKS
ASPEN          MOCLDY    30  18  60 N18G28    29.74R WCI  18
BUENA VISTA    CLOUDY    35   7  31 SW7G24    29.73R WCI  29
COPPER MTN     NOT AVBL
BERTHOUD PASS  SNOW       3  -8  60 W20       29.61R VSB 1/2 WCI -18
COTTONWOOD PAS CLOUDY    30   7  37 SW9G26    29.73R WCI  22
GUNNISON       FLURRIES  33  14  45 W9        29.79R WCI  25
KREMMLING      MOCLDY    21   5  49 N14G20    29.83R WCI   8
LEADVILLE      CLOUDY    22  -1  36 W12G29    29.70R WCI  10
MONARCH PASS   MOCLDY    18   9  68 W53G63    29.80S WCI  -7
SALIDA         CLOUDY    41   5  23 W16G38    29.82R
SUNLIGHT       LGT SNOW  14  12  92 SW12G24   29.78S VSB 1   WCI   0
WILKERSON PASS MOCLDY    21   5  49 SW20G28   29.71F WCI   6
$$

COZ069>075-060000-
...SAN LUIS VALLEY/SANGRE DE CRISTO MOUNTAINS...

CITY           SKY/WX    TMP DP  RH WIND       PRES   REMARKS
ALAMOSA        FAIR      42  16  34 W8        29.74R
LA VETA PASS   FAIR      32  14  47 N12G28    29.76R WCI  23
SAGUACHE       FAIR      37  10  32 NW15G21   29.76R
$$

COZ035-036-038>040-060000-
...NORTHERN COLORADO FRONT RANGE...

CITY           SKY/WX    TMP DP  RH WIND       PRES   REMARKS
DENVER INTL AP FAIR      31   7  36 N23G36    29.66R WCI  18
DMNS CITY PARK   N/A     44  15  30 N6G17     29.65R
AURORA         PTCLDY    33   9  36 NE14      29.68R WCI  24
FRONT RANGE AP PTCLDY    36   9  32 N23G30    29.68R
ERIE MUNI ARPT FAIR      41  12  30 W24       29.65R
BOULDER MUN AP FAIR      37  12  35 W29G35    29.67S
CENTENNIAL     FAIR      47   9  21 NW7       29.65R
BROOMFIELD     PTCLDY    39  18  41 W18G29    29.65R
FORT COLLINS   FAIR      30   3  31 NW38G49   29.73R WCI  14
LONGMONT       FAIR      41  13  31 SW16G22   29.70R
$$

COZ041-046-047-076>085-087-088-060000-
...PIKES PEAK/PALMER DIVIDE AND SOUTHERN FOOTHILLS...

CITY           SKY/WX    TMP DP  RH WIND       PRES   REMARKS
COLO. SPRINGS  FAIR      49  -2  12 SW25G32   29.67R
A. F. ACADEMY  FAIR      45   2  16 W14G21    29.66S
SCHRIEVER AFB  NOT AVBL
ELLICOTT       FAIR     N/A N/A N/A MISG      29.65R
FALCON         FAIR      45  -2  14 W12G23    29.69R
FORT CARSON    FAIR      51   2  13 W28G36    29.65R
LIMON          FAIR      37  10  32 N28G35    29.69R
MONUMENT HILL  FAIR      41   7  24 W8        29.69R
TRINIDAD       FAIR      57  10  15 N8        29.62R
$$

COZ042>045-048>051-090-091-060000-
...NORTHEAST COLORADO...

CITY           SKY/WX    TMP DP  RH WIND       PRES   REMARKS
GREELEY ARPT   FAIR      31   4  31 NW44G59   29.68R WCI  14
AKRON          FAIR      34  -7  17 N29G46    29.73R WCI  20
BURLINGTON     CLOUDY    45   9  23 N28G41    29.69R
WRAY           NOT AVBL
STERLING       FAIR      32  14  47 N22G29    29.78R WCI  19
HOLYOKE        FAIR      36  19  51 NW26G36   29.76R
FORT MORGAN    FAIR      34  -7  17 NW29G38   29.74R WCI  20
$$

COZ086-089-092>099-060000-
...SOUTHEAST COLORADO...

CITY           SKY/WX    TMP DP  RH WIND       PRES   REMARKS
PUEBLO         FAIR      56   6  13 NW33G45   29.60R
LA JUNTA       FAIR      60   0   9 NW25G38   29.59R
LAMAR          FAIR      59  18  20 NE16      29.57R
SPRINGFIELD      N/A     58  15  18 N16G25    29.58R
$$




USA.gov is the U.S. government's official web portal to all federal, state and local government web resources and services.